Location: Caltech
(34.1382°N, 118.1253°W)
Time: 13:51:03
(UTC-07:00)

Sapphire - Visible Passes

Search period start: 27 July 2017 00:00
Search period end: 06 August 2017 00:00
Orbit: 784 x 797 km, 67.1° (Epoch: 26 July)

Date Brightness Start Highest point End Pass type
(mag) Time Alt. Az. Time Alt. Az. Time Alt. Az.
27 Jul ? 03:20:17 10° ESE 03:21:42 11° ESE 03:23:08 10° E visible
27 Jul ? 04:59:28 13° SSW 05:04:22 76° WNW 05:09:50 10° NNE visible
28 Jul ? 04:30:08 22° SSW 04:33:43 77° ESE 04:39:10 10° NNE visible
29 Jul ? 04:00:44 31° S 04:03:06 54° ESE 04:08:24 10° NE visible
30 Jul ? 03:31:16 33° SE 03:32:32 37° ESE 03:37:30 10° NE visible
30 Jul ? 05:12:01 12° WSW 05:15:59 26° NW 05:20:30 10° N visible
31 Jul ? 03:01:46 26° ESE 03:02:00 26° ESE 03:06:26 10° NE visible
31 Jul ? 04:42:30 22° WSW 04:45:11 35° WNW 04:50:10 10° N visible
01 Aug ? 02:32:12 18° E 02:32:12 18° E 02:35:06 10° ENE visible
01 Aug ? 04:12:56 39° WSW 04:14:26 49° WNW 04:19:43 10° NNE visible
02 Aug ? 02:02:35 11° E 02:02:35 11° E 02:03:07 10° E visible
02 Aug ? 03:43:20 67° W 03:43:44 70° WNW 03:49:10 10° NNE visible
03 Aug ? 03:13:40 71° NE 03:13:40 71° NE 03:18:32 10° NNE visible
03 Aug ? 04:54:37 10° WNW 04:57:08 13° NW 04:59:40 10° NNW visible
04 Aug ? 02:43:58 43° ENE 02:43:58 43° ENE 02:47:47 10° NE visible
04 Aug ? 04:24:42 16° WNW 04:26:14 18° NW 04:29:53 10° N visible
05 Aug ? 02:14:14 27° ENE 02:14:14 27° ENE 02:16:56 10° NE visible
05 Aug ? 03:54:58 24° WNW 03:55:22 24° NW 03:59:45 10° N visible
